EW6409 Weather Reports


time (UTC)temp
C
wind
direction
speed
KPH
gust
KPH
rain 1hr
cm
rain 24hr
cm
rain mn
cm
humidity
%
barometer
mb
20260507001553 22 265 0.0 1.6 0.00 0.00 0.00 53 1013.4
20260507000048 22 150 0.0 3.2 0.00 0.00 0.00 52 1013.2
20260506234549 22 256 0.0 3.2 0.00 0.00 0.00 52 1013.4
20260506233100 22 91 0.0 3.2 0.00 0.00 0.00 52 1013.3
20260506231546 22 46 0.0 1.6 0.00 0.00 0.00 52 1013.4
20260506230048 23 198 0.0 3.2 0.00 0.00 0.00 52 1013.4
20260506224543 23 298 0.0 6.4 0.00 0.00 0.00 52 1013.5
20260506223041 23 272 0.0 11.3 0.00 0.00 0.00 51 1013.7
20260506221540 23 297 0.0 6.4 0.00 0.00 0.00 50 1013.9
20260506220041 23 191 0.0 3.2 0.00 0.00 0.00 50 1014.1
20260506214536 24 256 0.0 6.4 0.00 0.00 0.00 49 1014.2
20260506213033 25 101 0.0 0.0 0.00 0.00 0.00 48 1014.4
20260506211535 24 202 0.0 4.8 0.00 0.00 0.00 51 1014.6
20260506210036 25 138 0.0 6.4 0.00 0.00 0.00 48 1014.8
20260506204529 25 86 0.0 1.6 0.00 0.00 0.00 48 1014.8
20260506203026 24 129 0.0 0.0 0.00 0.00 0.00 50 1015.0
20260506201525 23 258 0.0 4.8 0.00 0.00 0.00 49 1015.2
20260506200035 23 69 0.0 3.2 0.00 0.00 0.00 50 1015.3
20260506194521 23 38 0.0 1.6 0.00 0.00 0.00 52 1015.5
20260506193017 22 74 0.0 3.2 0.00 0.00 0.00 53 1015.7
20260506191514 22 56 0.0 1.6 0.00 0.00 0.00 55 1016.0
20260506190011 21 98 0.0 1.6 0.00 0.00 0.00 56 1016.0
20260506184508 21 69 0.0 1.6 0.00 0.00 0.00 59 1016.1
20260506183006 21 67 0.0 0.0 0.00 0.00 0.00 59 1016.3
20260506181504 20 82 0.0 0.0 0.00 0.00 0.00 60 1016.3
20260506180008 20 143 0.0 0.0 0.00 0.00 0.00 61 1016.4
20260506174602 20 51 0.0 0.0 0.00 0.00 0.00 61 1016.4
20260506173111 19 80 0.0 0.0 0.00 0.00 0.00 62 1016.4
20260506171558 18 80 0.0 0.0 0.00 0.00 0.00 65 1016.4
20260506170059 17 171 0.0 0.0 0.00 0.00 0.00 68 1016.4
20260506164605 17 78 0.0 0.0 0.00 0.00 0.00 69 1016.3
20260506163044 16 161 0.0 0.0 0.00 0.00 0.00 71 1016.4
20260506161539 15 117 0.0 0.0 0.00 0.00 0.00 73 1016.4
20260506160037 15 140 0.0 0.0 0.00 0.00 0.00 77 1016.4
20260506154538 14 136 0.0 0.0 0.00 0.00 0.00 79 1016.5
20260506153031 13 109 0.0 0.0 0.00 0.00 0.00 82 1016.5
20260506151526 13 107 0.0 0.0 0.00 0.00 0.00 84 1016.5
20260506150025 12 53 0.0 0.0 0.00 0.00 0.00 87 1016.5
20260506144522 12 51 0.0 0.0 0.00 0.00 0.00 87 1016.6
20260506143017 11 28 0.0 0.0 0.00 0.00 0.00 87 1016.6
20260506141514 10 360 0.0 0.0 0.00 0.00 0.00 87 1016.5
20260506140010 10 295 0.0 0.0 0.00 0.00 0.00 87 1016.3
20260506134508 9 360 0.0 0.0 0.00 0.00 0.00 87 1016.1
20260506133007 8 295 0.0 0.0 0.00 0.00 0.00 87 1016.1
20260506131508 8 295 0.0 0.0 0.00 0.00 0.00 87 1016.0
20260506130013 8 295 0.0 0.0 0.00 0.00 0.00 87 1015.8
20260506124504 8 295 0.0 0.0 0.00 0.00 0.00 87 1015.7
20260506123003 9 295 0.0 0.0 0.00 0.00 0.00 87 1015.6
20260506121502 8 295 0.0 0.0 0.00 0.00 0.00 87 1015.5
20260506120002 8 295 0.0 0.0 0.00 0.00 0.00 86 1015.5
20260506114503 8 295 0.0 0.0 0.00 0.00 0.00 86 1015.4
20260506113109 8 295 0.0 0.0 0.00 0.00 0.00 86 1015.3
20260506111600 8 295 0.0 0.0 0.00 0.00 0.00 86 1015.3
20260506110101 8 295 0.0 0.0 0.00 0.00 0.00 85 1015.2
20260506104557 8 295 0.0 0.0 0.00 0.00 0.00 85 1015.4
20260506103056 8 295 0.0 0.0 0.00 0.00 0.00 84 1015.3
20260506101555 8 295 0.0 0.0 0.00 0.00 0.00 84 1015.2
20260506100054 9 295 0.0 0.0 0.00 0.00 0.00 84 1015.3
20260506094553 9 295 0.0 0.0 0.00 0.00 0.00 83 1015.2
20260506093053 9 294 0.0 0.0 0.00 0.00 0.00 83 1015.3
20260506091549 10 294 0.0 0.0 0.00 0.00 0.00 83 1015.3
20260506090047 10 294 0.0 0.0 0.00 0.00 0.00 83 1015.6
20260506084545 10 291 0.0 0.0 0.00 0.00 0.00 84 1015.7
20260506083046 9 290 0.0 0.0 0.00 0.00 0.00 83 1015.7
20260506081548 9 289 0.0 0.0 0.00 0.00 0.00 83 1015.8
20260506073040 10 289 0.0 0.0 0.00 0.00 0.00 83 1015.9
20260506071548 10 288 0.0 0.0 0.00 0.00 0.00 83 1015.7
20260506061535 10 360 0.0 0.0 0.00 0.00 0.00 81 1015.1
20260506044530 11 289 0.0 0.0 0.00 0.00 0.00 78 1014.5
20260506043023 11 289 0.0 0.0 0.00 0.00 0.00 77 1014.4
20260506041521 11 290 0.0 0.0 0.00 0.00 0.00 77 1014.0
20260506040019 11 290 0.0 0.0 0.00 0.00 0.00 75 1013.8
20260506034518 12 290 0.0 0.0 0.00 0.00 0.00 73 1013.7
20260506033016 12 290 0.0 0.0 0.00 0.00 0.00 71 1013.5
20260506031517 13 289 0.0 0.0 0.00 0.00 0.00 70 1013.3
20260506030013 13 290 0.0 0.0 0.00 0.00 0.00 69 1013.0
20260506024511 14 290 0.0 0.0 0.00 0.00 0.00 69 1012.7
20260506023009 14 290 0.0 0.0 0.00 0.00 0.00 68 1012.6
20260506021509 15 360 0.0 0.0 0.00 0.00 0.00 67 1012.4
20260506020008 15 304 0.0 0.0 0.00 0.00 0.00 66 1012.5
20260506014511 15 360 0.0 0.0 0.00 0.00 0.00 65 1012.4
20260506013007 15 276 0.0 0.0 0.00 0.00 0.00 63 1012.3
20260506011507 15 360 0.0 0.0 0.00 0.00 0.00 63 1012.2
20260506010007 16 214 0.0 0.0 0.00 0.00 0.00 63 1012.3
20260506004506 16 360 0.0 0.0 0.00 0.00 0.00 61 1012.2
20260506003007 16 152 0.0 0.0 0.00 0.00 0.00 59 1012.2